This is the latest recevied weather packets stored in our database for station/object VK2EHQ. If no packets are shown the sender has not sent any weather packets the latest 10 day(s).
| Time | Temp. | Humidity | Pressure | Rain* | Wind** | Luminosity | Snow |
|---|---|---|---|---|---|---|---|
| 1787872175 | 13.89° C | 50% | 1028.2 hPa | 0 mm | - | - | - |
| 1787871574 | 13.33° C | 51% | 1028.2 hPa | 0 mm | - | - | - |
| 1787870974 | 12.78° C | 51% | 1028.1 hPa | 0 mm | - | - | - |
| 1787870375 | 12.78° C | 51% | 1028.1 hPa | 0 mm | - | - | - |
| 1787869774 | 12.78° C | 51% | 1028 hPa | 0 mm | - | - | - |
| 1787869176 | 12.78° C | 51% | 1027.8 hPa | 0 mm | - | - | - |
| 1787867975 | 12.78° C | 52% | 1027.5 hPa | 0 mm | - | - | - |
| 1787867374 | 12.22° C | 52% | 1027 hPa | 0 mm | - | - | - |
| 1787866774 | 12.22° C | 53% | 1027.3 hPa | 0 mm | - | - | - |
| 1787866173 | 12.22° C | 53% | 1027.4 hPa | 0 mm | - | - | - |
| 1787865573 | 11.67° C | 54% | 1027.4 hPa | 0 mm | - | - | - |
| 1787864974 | 11.67° C | 54% | 1027.3 hPa | 0 mm | - | - | - |
| 1787864373 | 11.67° C | 55% | 1027.4 hPa | 0 mm | - | - | - |
| 1787797466 | 16.11° C | 70% | 1027.2 hPa | 0 mm | - | - | - |
| 1787796866 | 16.11° C | 70% | 1027.4 hPa | 0 mm | - | - | - |
| 1787795665 | 15° C | 70% | 1027.7 hPa | 0 mm | - | - | - |
| 1787794467 | 15° C | 69% | 1028.1 hPa | 0 mm | - | - | - |
| 1787793865 | 15° C | 68% | 1028.2 hPa | 0 mm | - | - | - |
| 1787793266 | 15° C | 67% | 1028.4 hPa | 0 mm | - | - | - |
| 1787792665 | 15° C | 67% | 1028.5 hPa | 0 mm | - | - | - |
| 1787792067 | 15° C | 66% | 1028.5 hPa | 0 mm | - | - | - |
| 1787791466 | 14.44° C | 65% | 1028.6 hPa | 0 mm | - | - | - |
| 1787790867 | 14.44° C | 64% | 1028.7 hPa | 0 mm | - | - | - |
| 1787790265 | 14.44° C | 63% | 1028.7 hPa | 0 mm | - | - | - |
| 1787789666 | 13.89° C | 62% | 1028.7 hPa | 0 mm | - | - | - |
* Rain latest hour (hover to see other rain measurements)
** Current wind speed in m/s (hover to see current wind gust speed)